Regional Weather Roundup
Issued by NWS Sioux Falls, SD

Home | Current Version | Previous Version | Graphics & Text | Print | Product List | Glossary On
Versions: 1 2 3 4 5 6 7 8 9 10 11 12 13 14 15 16 17 18 19 20 21 22 23 24 25 26 27 28 29 30 31 32 33 34 35 36 37 38 39 40 41 42 43 44 45 46 47 48 49 50
000
ASUS43 KFSD 311202
RWRFSD

WEATHER ROUNDUP FOR SE SOUTH DAKOTA/SW MINNESOTA/NW IOWA
NATIONAL WEATHER SERVICE SIOUX FALLS SD
700 AM CDT THU JUL 31 2014

NOTE: "FAIR" INDICATES FEW OR NO CLOUDS BELOW 12,000 FEET WITH NO
SIGNIFICANT WEATHER AND OR OBSTRUCTIONS TO VISIBILITY.


SDZ038>040-050-052>070-311300-
SOUTHEAST SOUTH DAKOTA

CITY           SKY/WX    TMP DP  RH WIND       PRES   REMARKS
CHAMBERLAIN    CLEAR     63  56  77 SE8       30.05S
6HR MIN TEMP:  62; 6HR MAX TEMP:  66;

HURON          MOCLDY    57  55  93 N9        30.08R
6HR MIN TEMP:  57; 6HR MAX TEMP:  63;

MADISON        FAIR      52  52 100 NE6       30.10R
MITCHELL       CLOUDY    66  61  84 W3        30.08R
6HR MIN TEMP:  64; 6HR MAX TEMP:  69; 6HR PCP:  0.13;

SIOUX FALLS    MOCLDY    58  56  93 NE3       30.09S
6HR MIN TEMP:  53; 6HR MAX TEMP:  61;

WINNER         FAIR      55  51  86 W5        30.06R
YANKTON        CLOUDY    61  57  88 S3        30.07F
$$

MNZ071-072-080-081-089-090-097-098-311300-
SOUTHWEST MINNESOTA

CITY           SKY/WX    TMP DP  RH WIND       PRES   REMARKS
FAIRMONT       CLOUDY    59  52  77 W5        30.08S
JACKSON        CLEAR     57  52  82 W5        30.10S
LUVERNE        CLEAR     52  50  93 CALM      30.11S
MARSHALL       PTCLDY    57  52  82 CALM      30.07S
6HR MIN TEMP:  54; 6HR MAX TEMP:  59;

MONTEVIDEO     PTCLDY    57  54  88 NW5       30.08S
PIPESTONE      CLOUDY    59  54  82 CALM      30.10S
REDWOOD FALLS  CLEAR     57  54  89 W5        30.07R
TRACY          CLEAR     60  55  84 SW7       30.09S
WINDOM         CLEAR     55  54  94 CALM      30.10R
WORTHINGTON    MOCLDY    59  54  82 W6        30.11S
$$

IAZ001>003-012>014-020>022-031-032-NEZ013-014-SDZ071-311300-
NORTHWEST IOWA

CITY           SKY/WX    TMP DP  RH WIND       PRES   REMARKS
CHEROKEE       CLEAR     51  51 100 CALM      30.11S FOG
DENISON        CLEAR     52  52 100 CALM      30.10S
ESTHERVILLE    PTCLDY    56  54  93 W5        30.09R
LE MARS        CLEAR     54  52  94 CALM      30.10S
SIOUX CITY     CLEAR     56  54  93 E5        30.09F
6HR MIN TEMP:  54; 6HR MAX TEMP:  58;

SPENCER        CLEAR     50  49  96 CALM      30.11R
6HR MIN TEMP:  49; 6HR MAX TEMP:  57;

STORM LAKE     CLEAR     57  55  94 W6        30.11S
$$

ABBREVIATIONS USED IN REMARKS
   TC - TEMPERATURE IN CELSIUS
  WCI - WIND CHILL INDEX
   HX - HEAT INDEX
  VSB - VISIBILITY



USA.gov is the U.S. government's official web portal to all federal, state and local government web resources and services.